Content
SEND FEEDBACK

Daily
Averages
Monthly
Summary
United States of America

CALDWELL, KANSAS


Home > North America > United States > Kansas
Elevation: 1140 feet     Latitude: 37 02N     Longitude: 097 37W

WEATHER
 
SELECT A DAY
Number of Records: 121,398;   Date Range: 3/17/09 - 7/21/14
 
SHARE

PRINT THIS DATA

[ ← Previous Day ]
WEATHER ALMANAC - JANUARY 31, 2013
[ Next Day → ]
[ °C ]   °F
Weather ElementAverageHighLow
Temperature28.9 °F41 °F (12:15 pm)19.4 °F (10:15 pm)
Dewpoint18.2 °F26.6 °F (11:55 am)6.8 °F (8:35 pm)
Humidity65.4 %86 % (12:35 am)47 % (5:55 pm)
Barometer30.18 in30.46 in (9:15 pm)29.97 in (4:35 am)
Wind Speed10.4 mph24.2 mph (12:15 pm)
Wind Gust31.1 mph (1:35 pm)
Weather ElementAverage
Visibility10 mi
Wind DirectionESE (110.4 °)

Weather ElementTotal
Precipitation---
Heating Degree Days34.8 (Base 65)
Averaged from 69 records on January 31, 2013
WEATHER CONDITIONS BREAKOUT
WIND DIRECTION BREAKOUT
WEATHER BY HOUR - JANUARY 31, 2013
[ °C ]   °F
Local TimeTemperatureDewpointHumidityBarometerVisibilityWind DirectionWind SpeedGust SpeedPrecipitationEventsConditions
12:35 AM26.6 °F23.0 °F86 %30.02 in10.0 miSouth (170°)3.5 mphClear
12:55 AM24.8 °F21.2 °F86 %30.01 in10.0 miSSE (160°)3.5 mphClear
1:15 AM24.8 °F21.2 °F86 %30.01 in10.0 miCalmClear
1:35 AM26.6 °F21.2 °F80 %30.00 in10.0 miSSW (200°)4.6 mphClear
1:55 AM24.8 °F19.4 °F80 %30.00 in10.0 miSW (220°)5.8 mphClear
2:15 AM24.8 °F19.4 °F80 %30.00 in10.0 miSW (230°)3.5 mphClear
2:35 AM24.8 °F21.2 °F86 %30.00 in10.0 miCalmClear
2:55 AM24.8 °F21.2 °F86 %30.00 in10.0 miSSW (210°)10.4 mphClear
3:15 AM24.8 °F19.4 °F80 %29.99 in10.0 miSW (230°)8.1 mphClear
3:35 AM26.6 °F19.4 °F74 %29.99 in10.0 miWSW (240°)9.2 mphClear
3:55 AM26.6 °F19.4 °F74 %29.98 in10.0 miWSW (250°)10.4 mphClear
4:15 AM26.6 °F19.4 °F74 %29.98 in10.0 miWSW (250°)10.4 mphClear
4:35 AM24.8 °F19.4 °F80 %29.97 in10.0 miWest (260°)8.1 mphClear
4:55 AM24.8 °F19.4 °F80 %29.98 in10.0 miWSW (250°)10.4 mphClear
5:15 AM24.8 °F19.4 °F80 %29.99 in10.0 miWSW (250°)6.9 mphClear
5:35 AM24.8 °F19.4 °F80 %30.00 in10.0 miSW (230°)5.8 mphClear
5:55 AM24.8 °F19.4 °F80 %30.00 in10.0 miWest (270°)3.5 mphClear
6:15 AM24.8 °F19.4 °F80 %30.01 in10.0 miSouth (180°)4.6 mphClear
6:35 AM24.8 °F17.6 °F74 %30.01 in10.0 miSW (230°)3.5 mphPartly Cloudy
6:55 AM23.0 °F19.4 °F86 %30.00 in10.0 miSSW (210°)4.6 mphClear
7:15 AM23.0 °F19.4 °F86 %30.02 in10.0 miCalmClear
7:35 AM24.8 °F17.6 °F74 %30.03 in10.0 miCalmClear
7:55 AM24.8 °F19.4 °F80 %30.04 in10.0 miCalmClear
8:15 AM26.6 °F19.4 °F74 %30.02 in10.0 miSouth (180°)3.5 mphClear
8:35 AM28.4 °F21.2 °F74 %30.06 in10.0 miCalmClear
8:55 AM28.4 °F23.0 °F80 %30.08 in10.0 miWSW (240°)4.6 mphClear
9:15 AM32.0 °F23.0 °F69 %30.10 in10.0 miWest (280°)8.1 mphClear
9:35 AM33.8 °F24.8 °F70 %30.12 in10.0 miWNW (300°)6.9 mphClear
9:55 AM37.4 °F24.8 °F60 %30.13 in10.0 miWNW (300°)6.9 mphClear
10:15 AM39.2 °F23.0 °F52 %30.13 in10.0 miNNW (340°)9.2 mphClear
10:35 AM39.2 °F23.0 °F52 %30.15 in10.0 miNorth (350°)11.5 mphClear
10:55 AM39.2 °F23.0 °F52 %30.15 in10.0 miNorth (10°)13.8 mphPartly Cloudy
11:15 AM39.2 °F24.8 °F56 %30.16 in10.0 miNorth (360°)15.0 mphPartly Cloudy
11:35 AM39.2 °F24.8 °F56 %30.15 in10.0 miNNE (20°)17.3 mphClear
11:55 AM39.2 °F26.6 °F61 %30.16 in10.0 miNNE (20°)17.3 mphClear
12:15 PM41.0 °F26.6 °F57 %30.16 in10.0 miNorth (10°)24.2 mph28.8 mphClear
12:35 PM41.0 °F26.6 °F57 %30.16 in10.0 miNNE (20°)21.9 mph27.6 mphClear
12:55 PM41.0 °F24.8 °F53 %30.16 in10.0 miNorth (10°)21.9 mph29.9 mphClear
1:15 PM39.2 °F23.0 °F52 %30.17 in10.0 miNNE (30°)20.7 mph28.8 mphClear
1:35 PM37.4 °F23.0 °F56 %30.19 in10.0 miNNE (30°)23.0 mph31.1 mphClear
1:55 PM37.4 °F23.0 °F56 %30.20 in10.0 miNorth (10°)24.2 mph29.9 mphMostly Cloudy
2:15 PM37.4 °F23.0 °F56 %30.20 in10.0 miNorth (10°)18.4 mph29.9 mphScattered Clouds
2:35 PM37.4 °F23.0 °F56 %30.22 in10.0 miNNE (20°)20.7 mph27.6 mphClear
2:55 PM35.6 °F23.0 °F60 %30.23 in10.0 miNNE (20°)18.4 mph26.5 mphClear
3:15 PM35.6 °F21.2 °F56 %30.24 in10.0 miNNE (20°)19.6 mph25.3 mphClear
3:35 PM33.8 °F17.6 °F52 %30.25 in10.0 miNNE (30°)18.4 mph25.3 mphClear
3:55 PM32.0 °F17.6 °F55 %30.27 in10.0 miNorth (10°)20.7 mph27.6 mphClear
4:15 PM32.0 °F15.8 °F51 %30.29 in10.0 miNNE (20°)21.9 mph26.5 mphClear
4:35 PM32.0 °F15.8 °F51 %30.30 in10.0 miNNE (30°)18.4 mph23.0 mphClear
4:55 PM30.2 °F14.0 °F51 %30.32 in10.0 miNNE (30°)18.4 mph25.3 mphClear
5:15 PM28.4 °F14.0 °F55 %30.33 in10.0 miNNE (20°)16.1 mphClear
5:35 PM28.4 °F12.2 °F51 %30.33 in10.0 miNNE (20°)19.6 mph24.2 mphClear
5:55 PM28.4 °F10.4 °F47 %30.36 in10.0 miNNE (20°)11.5 mphClear
6:15 PM26.6 °F12.2 °F55 %30.39 in10.0 miNNE (20°)6.9 mphClear
6:35 PM26.6 °F12.2 °F55 %30.39 in10.0 miNorth (360°)9.2 mphClear
6:55 PM26.6 °F14.0 °F59 %30.40 in10.0 miNNE (20°)8.1 mphClear
7:15 PM26.6 °F10.4 °F51 %30.41 in10.0 miNorth (10°)10.4 mphClear
7:35 PM24.8 °F10.4 °F54 %30.42 in10.0 miNNE (20°)10.4 mphClear
7:55 PM24.8 °F8.6 °F50 %30.43 in10.0 miNorth (10°)15.0 mphPartly Cloudy
8:15 PM24.8 °F8.6 °F50 %30.43 in10.0 miNNE (30°)12.7 mphMostly Cloudy
8:35 PM23.0 °F6.8 °F50 %30.44 in10.0 miNNE (20°)11.5 mphMostly Cloudy
8:55 PM23.0 °F8.6 °F54 %30.45 in10.0 miNNE (30°)9.2 mphPartly Cloudy
9:15 PM23.0 °F8.6 °F54 %30.46 in10.0 miNE (40°)6.9 mphClear
9:35 PM21.2 °F10.4 °F63 %30.45 in10.0 miNE (40°)4.6 mphClear
10:15 PM19.4 °F10.4 °F68 %30.44 in10.0 miNE (40°)8.1 mphScattered Clouds
10:35 PM19.4 °F10.4 °F68 %30.44 in10.0 miNE (50°)5.8 mphClear
10:55 PM19.4 °F10.4 °F68 %30.45 in10.0 miCalmClear
11:15 PM19.4 °F10.4 °F68 %30.46 in10.0 miENE (70°)3.5 mphClear
11:35 PM19.4 °F10.4 °F68 %30.43 in10.0 miENE (60°)8.1 mphClear
Hourly data recorded from KBKN, located miles away from Caldwell, Kansas







STORIES FROM OUR PARTNERS